DW4277 Weather Reports


time (UTC)temp
F
wind
direction
speed
knots
gust
knots
rain 1hr
in
rain 24hr
in
rain mn
in
humidity
%
barometer
mb
20240614120049 71 142 7.0 22.6 0.00 0.00 0.00 54 1013.7
20240614114554 71 137 4.3 17.4 0.00 0.00 0.00 56 1013.9
20240614113044 71 167 9.6 22.6 0.00 0.00 0.00 55 1013.9
20240614111542 70 158 7.8 17.4 0.00 0.00 0.00 56 1014.0
20240614110048 70 173 7.8 16.5 0.00 0.00 0.00 55 1014.1
20240614104558 70 137 1.7 19.1 0.00 0.00 0.00 57 1014.0
20240614103041 70 212 13.0 26.1 0.00 0.00 0.00 54 1014.2
20240614101537 70 158 1.7 21.7 0.00 0.00 0.00 53 1014.2
20240614100055 69 124 4.3 15.6 0.00 0.00 0.00 52 1014.3
20240614094534 69 192 10.4 22.6 0.00 0.00 0.00 54 1014.4
20240614093028 68 123 5.2 14.8 0.00 0.00 0.00 57 1014.6
20240614091527 68 165 8.7 17.4 0.00 0.00 0.00 59 1014.9
20240614090024 67 158 2.6 13.0 0.00 0.00 0.00 58 1014.9
20240614084622 67 169 6.1 15.6 0.00 0.00 0.00 57 1014.9
20240614083020 67 142 4.3 13.0 0.00 0.00 0.00 59 1015.0
20240614081516 66 138 3.5 11.3 0.00 0.00 0.00 63 1015.2
20240614080013 65 163 6.1 11.3 0.00 0.00 0.00 65 1015.1
20240614074509 64 205 0.0 7.8 0.00 0.00 0.00 69 1015.1
20240614073006 63 219 2.6 8.7 0.00 0.00 0.00 69 1015.2
20240614071505 63 225 0.0 2.6 0.00 0.00 0.00 70 1015.4
20240614070001 62 281 0.0 5.2 0.00 0.00 0.00 72 1015.5
20240614064557 61 284 0.0 4.3 0.00 0.00 0.00 73 1015.6
20240614063056 60 293 0.0 0.0 0.00 0.00 0.00 75 1015.6
20240614061559 60 294 0.9 5.2 0.00 0.00 0.00 76 1015.6
20240614060058 60 331 0.0 0.0 0.00 0.00 0.00 78 1015.5
20240614054545 58 331 0.0 0.0 0.00 0.00 0.00 81 1015.8
20240614053050 57 331 0.0 0.0 0.00 0.00 0.00 83 1015.9
20240614051543 56 331 0.0 0.0 0.00 0.00 0.00 85 1015.8
20240614050037 55 331 0.0 0.0 0.00 0.00 0.00 86 1015.9
20240614044535 54 340 0.0 0.0 0.00 0.00 0.00 87 1015.8
20240614043029 53 338 0.0 0.0 0.00 0.00 0.00 88 1015.8
20240614041526 52 338 0.0 0.0 0.00 0.00 0.00 88 1016.0
20240614040027 52 342 0.0 0.0 0.00 0.00 0.00 88 1016.0
20240614034530 51 342 0.0 0.0 0.00 0.00 0.00 87 1016.1
20240614033018 51 342 0.0 0.9 0.00 0.00 0.00 87 1016.1
20240614031515 51 333 0.0 0.0 0.00 0.00 0.00 86 1015.9
20240614030013 51 335 0.0 0.0 0.00 0.00 0.00 85 1016.0
20240614024511 52 335 0.0 0.0 0.00 0.00 0.00 85 1016.0
20240614023012 52 334 0.0 0.0 0.00 0.00 0.00 84 1015.9
20240614021506 53 335 0.0 0.0 0.00 0.00 0.00 83 1015.9
20240614020004 53 335 0.0 0.0 0.00 0.00 0.00 83 1015.9
20240614014504 54 335 0.0 0.0 0.00 0.00 0.00 83 1015.8
20240614013004 54 335 0.0 0.0 0.00 0.00 0.00 83 1015.8
20240614011501 54 335 0.0 9.6 0.00 0.00 0.00 82 1015.9
20240614010101 54 334 5.2 9.6 0.00 0.00 0.00 81 1015.9
20240614004602 54 335 4.3 7.8 0.00 0.00 0.00 80 1015.9
20240614003057 55 335 4.3 12.2 0.00 0.00 0.00 80 1015.8
20240614001556 55 335 7.0 13.9 0.00 0.00 0.00 79 1015.8
20240614000053 55 336 7.0 12.2 0.00 0.00 0.00 80 1016.0
20240613234552 55 336 7.8 13.9 0.00 0.00 0.00 80 1016.1
20240613233049 56 339 6.1 9.6 0.00 0.00 0.00 79 1016.1
20240613231548 56 339 7.0 13.9 0.00 0.00 0.00 78 1016.1
20240613230054 56 340 8.7 14.8 0.00 0.00 0.00 78 1016.1
20240613224545 56 338 7.8 12.2 0.00 0.00 0.00 78 1016.1
20240613223043 56 338 6.1 12.2 0.00 0.00 0.00 76 1016.1
20240613221547 57 338 7.0 13.9 0.00 0.00 0.00 76 1016.2
20240613220040 57 337 7.8 13.9 0.00 0.00 0.00 76 1016.2
20240613214539 57 333 7.0 14.8 0.00 0.01 0.00 76 1016.3
20240613213048 57 332 7.8 13.9 0.00 0.01 0.00 77 1016.3
20240613211537 57 328 7.0 13.9 0.00 0.01 0.00 77 1016.3
20240613210037 57 324 3.5 7.8 0.00 0.01 0.00 77 1016.3
20240613204537 57 324 4.3 9.6 0.00 0.01 0.00 77 1016.2
20240613203037 58 324 6.1 12.2 0.00 0.01 0.00 76 1016.1
20240613201604 58 322 7.0 12.2 0.00 0.01 0.00 74 1016.0
20240613200051 59 322 4.3 8.7 0.00 0.01 0.00 73 1015.8
20240613194537 60 322 6.1 12.2 0.00 0.01 0.00 72 1015.8
20240613193034 60 321 9.6 16.5 0.00 0.01 0.00 72 1015.6
20240613191542 61 316 10.4 14.8 0.00 0.01 0.00 70 1015.5
20240613190042 61 314 8.7 15.6 0.00 0.01 0.00 68 1015.3
20240613184537 62 310 8.7 14.8 0.00 0.01 0.00 67 1015.1
20240613183036 63 337 0.0 12.2 0.00 0.01 0.00 66 1015.0
20240613181549 63 340 7.0 13.0 0.00 0.01 0.00 64 1015.1
20240613180040 63 339 8.7 13.9 0.00 0.01 0.00 62 1015.1
20240613174540 63 351 2.6 13.9 0.00 0.01 0.00 61 1015.1
20240613173031 63 2 6.1 15.6 0.00 0.01 0.00 58 1015.0
20240613171553 64 341 7.8 19.1 0.00 0.01 0.00 57 1015.0
20240613170033 65 354 0.0 13.9 0.00 0.01 0.00 57 1015.0
20240613164537 65 344 8.7 15.6 0.00 0.01 0.00 57 1015.0
20240613163037 65 333 4.3 16.5 0.00 0.01 0.00 57 1015.0
20240613161531 65 331 2.6 13.9 0.00 0.01 0.00 56 1015.0
20240613160031 65 316 9.6 20.0 0.00 0.01 0.00 58 1015.0
20240613154524 65 311 5.2 24.3 0.00 0.01 0.00 61 1014.9
20240613153032 65 327 0.0 15.6 0.00 0.01 0.00 60 1014.8
20240613151523 65 317 6.1 21.7 0.00 0.01 0.00 61 1014.7
20240613150023 64 316 11.3 20.9 0.00 0.01 0.00 64 1014.7
20240613144524 64 300 12.2 20.0 0.00 0.01 0.00 68 1014.8
20240613143021 66 298 16.5 26.1 0.00 0.01 0.00 64 1014.7
20240613141521 68 17 0.0 0.9 0.00 0.01 0.00 50 1014.6
20240613140021 69 15 11.3 16.5 0.00 0.01 0.00 46 1014.7
20240613134528 70 25 3.5 10.4 0.00 0.01 0.00 47 1014.7
20240613133016 70 356 4.3 14.8 0.00 0.01 0.00 48 1014.7
20240613131514 69 23 0.0 15.6 0.00 0.01 0.00 47 1014.8
20240613130033 68 335 7.0 15.6 0.00 0.01 0.00 49 1014.8
20240613124511 68 19 8.7 17.4 0.00 0.01 0.00 49 1014.9
20240613123010 68 18 5.2 14.8 0.00 0.01 0.00 51 1014.9
20240613121510 68 45 4.3 19.1 0.00 0.01 0.00 50 1014.9